Lid_Strength_Index
1 -0 -1 -1 -1 -1 -1 -1 -1 -1 -1 -1 -1 -1 -2 -2 -2 -2 -2 -2 -2 -2 -2 -2 -2 -2 -2 -2 -1 -2 -2 -2 -2 -2 -2 -2 -2 -2 -2 -2 -1 -1 -2
-0 -0 -1 -1 -1 -1 -1 -1 -1 -1 -1 -1 -1 -1 -1 -2 -2 -2 -2 -2 -2 -2 -2 -2 -2 -1 -1 -2 -2 -2 -2 -2 -2 -2 -2 -2 -2 -2 -2 -2 -2 -1 -2
-0 -1 -1 -1 -1 -1 -1 -1 -1 -2 -1 -1 -1 -1 -2 -2 -2 -2 -2 -2 -2 -2 -2 -2 -2 -1 -1 -1 -2 -2 -2 -2 -2 -2 -2 -0 -0 -2 -1 -2 -2 -1 -2
-0 -1 -1 -1 -1 -1 -1 -1 -1 -1 -1 -1 -1 -1 -1 -2 -2 -2 -2 -2 -1 -2 -2 -2 -1 -1 -1 -1 -1 -1 -1 -1 -2 -2 -0 -0 -0 -1 -1 -1 -1 -1 -1
-0 -1 -0 -1 -2 -1 -1 -1 -1 -1 -1 -1 -1 -1 -1 -1 -2 -2 -2 -2 -2 -2 -2 -1 -1 -1 -1 -1 -1 -1 -1 -1 -1 1 2 1 0 -1 -1 -1 -1 -1 -1
0 -0 -0 -1 -2 -1 -1 -1 -1 -1 -1 -1 -1 -1 -1 -1 -2 -2 -2 -2 -2 -2 -2 -1 -1 -1 -1 -1 -1 -1 -1 -2 -1 2 2 -0 0 -1 -1 -1 -1 -1 -1
1 -0 -0 -1 -1 -2 -1 -1 -1 -1 -1 -1 -1 -1 -1 -1 -2 -2 -2 -2 -2 -2 -2 -1 -1 -1 -1 -1 -1 -1 -1 -2 0 1 1 1 0 -1 -1 -1 -1 -1 -1
0 -0 -0 0 -0 -1 -1 -2 -2 -2 -2 -2 -1 -1 -1 -2 -2 -2 -2 -2 -1 -1 -2 -1 -1 -1 -1 -1 -1 -1 -1 -1 1 3 2 2 -0 -2 -1 -1 -1 -1 -1
0 -0 -0 -0 0 1 -0 -1 -1 -2 -2 -2 -2 -2 -2 -2 -2 -2 -2 -2 -2 -2 -2 -1 -1 0 0 -1 -1 -1 -0 0 2 3 2 3 0 -2 -1 -1 -1 -1 -1
1 0 0 0 0 0 0 1 0 -1 -1 -1 -1 -1 -1 -1 -1 -1 -1 -2 -2 -2 -2 -2 -2 -2 -1 -0 -1 -0 0 0 2 3 3 3 0 -2 -2 -1 -1 -1 -1
2 1 1 0 0 0 0 0 1 1 -0 -0 -0 0 0 0 0 0 -0 -1 -2 -2 -2 -2 -2 -2 -2 -1 -1 -1 -1 2 3 4 4 1 -1 -2 -2 -2 -2 -1 -1
3 2 2 1 1 0 -0 -0 -0 -0 -0 1 0 0 0 0 0 -0 1 1 -1 -1 -2 -2 -2 -1 -0 0 1 0 1 1 2 3 3 1 -1 -2 -2 -2 -2 -2 -2
3 2 2 2 1 1 1 0 0 -0 -0 -0 0 1 1 0 2 1 1 1 1 2 1 0 0 0 1 1 0 1 1 1 2 2 2 -0 -1 -2 -2 -2 -2 -2 -2
5 3 2 2 2 2 1 1 1 0 -0 -0 -0 1 1 1 1 1 2 2 3 2 2 2 2 2 1 1 1 1 1 2 2 2 2 1 -0 -2 -2 -2 -2 -2 -2
5 4 3 1 2 2 2 2 1 1 1 0 -0 0 -0 0 0 0 0 1 1 2 2 2 2 2 2 2 1 1 1 2 2 2 2 2 1 -1 -2 -2 -2 -2 -2
4 4 3 2 1 2 2 2 2 2 1 1 1 -0 -0 -0 0 0 1 0 0 0 1 1 1 1 2 1 1 1 2 2 2 2 2 2 1 0 -1 -2 -2 -2 -2
5 4 4 3 4 4 3 2 2 2 1 1 1 1 0 -0 -0 0 1 1 0 0 1 1 1 1 1 1 1 1 1 1 1 2 2 2 2 2 0 -1 -2 -2 -2
5 5 4 3 3 2 4 5 3 1 2 2 2 -0 -0 -0 -0 -0 0 1 0 0 1 1 1 2 2 2 2 2 1 1 1 1 1 1 1 1 0 -0 -1 -2 -2
6 6 5 5 4 4 3 2 3 1 2 1 2 0 -0 0 -0 -0 0 0 -0 0 1 1 1 2 2 2 2 1 1 1 0 -0 -0 -0 -0 1 1 0 0 0 -1
8 7 7 6 6 6 4 2 3 2 2 2 1 1 1 2 1 1 1 1 0 1 1 1 1 1 1 1 1 1 1 0 1 1 1 1 1 1 1 1 0 1 1
9 10 10 9 9 8 7 4 3 3 3 4 5 6 6 6 6 5 4 4 3 1 2 2 1 1 2 1 2 2 2 1 1 2 2 2 1 1 1 1 1 1 0
11 12 11 11 10 10 9 6 2 5 4 4 7 8 9 8 8 8 6 6 6 5 5 5 4 3 2 1 3 3 5 4 3 3 1 1 1 2 1 0 0 0 1
12 12 12 12 11 11 11 6 4 4 5 6 7 9 10 10 10 8 8 8 7 6 6 6 6 5 4 3 2 3 6 7 4 3 3 3 2 3 2 1 1 1 1
15 13 12 12 13 12 12 10 8 8 9 9 9 10 10 10 10 10 9 9 9 8 9 8 6 6 5 5 4 3 1 2 5 6 4 3 4 3 2 1 2 1 3
14 14 14 13 14 14 14 12 12 11 10 10 10 11 12 12 12 11 11 10 10 9 9 8 8 8 7 6 5 4 4 6 5 6 7 6 6 5 5 6 3 5 6
14 14 15 15 15 15 15 14 14 14 13 13 13 13 13 13 13 13 12 12 11 10 10 9 8 8 8 8 8 7 8 7 8 8 9 9 9 8 8 6 6 8 8